Location: Fort Wayne
(41.1310°N, 85.1290°W)
Time: 15:53:20
(UTC-05:00)

Cosmos 2056 Rocket - Visible Passes

Search period start: 23 January 2017 00:00
Search period end: 02 February 2017 00:00
Orbit: 743 x 800 km, 74.0° (Epoch: 23 January)

Date Brightness Start Highest point End Pass type
(mag) Time Alt. Az. Time Alt. Az. Time Alt. Az.
23 Jan 5.7 20:29:44 10° NNW 20:30:39 15° NNW 20:30:39 15° NNW visible
24 Jan 5.0 19:54:01 10° N 19:56:07 22° N 19:56:07 22° N visible
25 Jan 4.7 19:18:30 10° N 19:21:47 23° NE 19:21:47 23° NE visible
25 Jan 5.5 21:00:08 10° NNW 21:02:11 23° NW 21:02:11 23° NW visible
26 Jan 5.0 18:43:23 10° NNE 18:46:29 16° NE 18:47:44 15° ENE visible
26 Jan 4.0 20:23:59 10° NNW 20:28:10 56° NW 20:28:10 56° NW visible
27 Jan 3.3 19:48:03 10° NNW 19:53:15 69° ENE 19:54:39 47° SE visible
27 Jan 6.2 21:32:10 10° WNW 21:34:44 14° W 21:35:08 14° W visible
28 Jan 3.8 19:12:18 10° N 19:17:14 41° ENE 19:22:12 10° SE visible
28 Jan 5.6 20:55:00 10° NW 20:59:05 24° W 21:02:53 11° SSW visible
29 Jan 4.4 18:36:45 10° N 18:41:06 26° ENE 18:45:29 10° ESE visible
29 Jan 4.8 20:18:30 10° NW 20:23:21 39° WSW 20:28:14 10° S visible
30 Jan 3.8 19:42:19 10° NNW 19:47:31 67° WSW 19:52:45 10° S visible
31 Jan 3.4 19:06:22 10° NNW 19:11:35 74° ENE 19:16:53 10° SSE visible
31 Jan 6.5 20:50:45 10° WNW 20:53:03 13° W 20:55:21 10° WSW visible
01 Feb 3.8 18:30:35 10° N 18:35:35 44° ENE 18:40:38 10° SE visible
01 Feb 5.9 20:13:25 10° NW 20:17:24 22° W 20:21:25 10° SSW visible
